Location: Appeville
(49.3218°N, 1.3427°W)
Time: 20:55:06
(UTC+00:00)

Okean-O - Pass Details

Date: 08 December 2019
Orbit: 639 x 640 km, 98.2° (Epoch: 28 January)

Event Time Altitude Azimuth Distance (km) Brightness Sun altitude
Rises 06:59:23 0° 14° (NNE) 2,960 5.9 -7.5°
Reaches altitude 10° 07:01:36 10° 15° (NNE) 2,045 5.1 -7.2°
Maximum altitude 07:06:04 86° 106° (ESE) 649 2.7 -6.6°
Drops below altitude 10° 07:10:30 10° 194° (SSW) 2,028 5.4 -5.9°
Sets 07:12:41 0° 195° (SSW) 2,932 6.2 -5.6°
